Regional Weather Roundup
Issued by NWS

Home | Current Version | Previous Version | Text Only | Print | Product List | Glossary On
Versions: 1 2 3 4 5 6 7 8 9 10 11 12 13 14 15 16 17 18 19 20 21 22 23 24 25 26 27 28 29 30 31 32 33 34 35 36 37 38 39 40 41 42 43 44 45 46 47 48 49 50
000
ASUS43 KOAX 252210
RWRNE

WEATHER ROUNDUP FOR NEBRASKA
NATIONAL WEATHER SERVICE OMAHA NE
500 PM CDT SAT OCT 25 2014

NOTES: SATELLITE DATA IS BEING USED TO AUGMENT CLOUD COVER ABOVE
       12000 FEET.
       "FAIR" INDICATES FEW OR NO CLOUDS BELOW 12,000 FEET WITH NO
       SIGNIFICANT WEATHER AND/OR OBSTRUCTIONS TO VISIBILITY.

  * THESE STATIONS DO NOT REPORT WEATHER SUCH AS RAIN...SNOW OR FOG.

NEZ001>004-019>022-054>056-252300-
NEBRASKA PANHANDLE

CITY           SKY/WX    TMP DP  RH WIND       PRES   REMARKS
SCOTTSBLUFF    SUNNY     77  36  22 E14       30.01F
ALLIANCE       SUNNY     76  36  23 E6        30.02F
CHADRON        SUNNY     73  40  30 E8        29.99F
KIMBALL        SUNNY     78  28  16 S9        30.06F
SIDNEY         SUNNY     77  38  24 SE8       30.06S
$$

NEZ057>060-069>072-079>082-252300-
SOUTHWEST NEBRASKA

CITY           SKY/WX    TMP DP  RH WIND       PRES   REMARKS
NORTH PLATTE   SUNNY     75  47  36 E15       30.01F
IMPERIAL       SUNNY     80  37  21 SE15      30.01F
LEXINGTON      SUNNY     77  47  34 E10       30.02F
MCCOOK         SUNNY     83  45  26 E10       29.99F
OGALLALA       SUNNY     80  39  23 SE6       30.01F
$$

NEZ005>010-023>029-035>040-094-252300-
NORTH CENTRAL NEBRASKA

CITY           SKY/WX    TMP DP  RH WIND       PRES   REMARKS
VALENTINE      SUNNY     71  31  22 SE13      30.04F
AINSWORTH      SUNNY     68  33  26 E9        30.06F
BROKEN BOW     SUNNY     73  45  36 E12G32    30.04F
O`NEILL        SUNNY     69  36  29 E8        30.07F
ORD            SUNNY     71  40  32 E8        30.04F
THEDFORD       SUNNY     74  41  30 E9        30.04F
$$

NEZ041-046>049-061>064-073>077-083>087-252300-
SOUTH CENTRAL NEBRASKA

CITY           SKY/WX    TMP DP  RH WIND       PRES   REMARKS
GRAND ISLAND   SUNNY     74  42  31 E12       30.05F
AURORA         SUNNY     73  38  28 E9        30.05S
HASTINGS       SUNNY     76  43  30 E9        30.03F
HEBRON         SUNNY     78  44  29 E9        30.02S
HOLDREGE       SUNNY     77  49  36 E10       30.02S
KEARNEY *      SUNNY     75  46  35 E14       30.04F
YORK           SUNNY     70  45  40 E10       30.05F
$$

NEZ011>018-030>034-042>045-252300-
NORTHEAST NEBRASKA

CITY           SKY/WX    TMP DP  RH WIND       PRES   REMARKS
NORFOLK        SUNNY     71  36  27 E10       30.06F
ALBION         SUNNY     70  37  29 SE9       30.06F
BLAIR          SUNNY     73  39  29 NE8       30.05F
COLUMBUS *     SUNNY     72  39  30 E9        30.07F
FREMONT        SUNNY     73  39  29 E8        30.06F
TEKAMAH        SUNNY     74  39  28 NE7       30.05F
WAYNE            N/A     70  32  24 E7        30.08F HAZE
$$

NEZ050>053-065>068-078-088>093-252300-
SOUTHEAST NEBRASKA

CITY           SKY/WX    TMP DP  RH WIND       PRES   REMARKS
LINCOLN        SUNNY     74  47  38 NE7       30.05F
OMAHA EPPLEY   SUNNY     75  39  27 NE3       30.05F
BEATRICE       SUNNY     75  47  36 E8        30.03S
FALLS CITY     SUNNY     78  46  32 CALM      30.02F
NEBRASKA CITY  SUNNY     74  34  22 E5        30.04F
PLATTSMOUTH    SUNNY     74  37  26 NE5       30.04F
$$

NEZ044-045-051>053-067-252300-
OMAHA AREA

CITY           SKY/WX    TMP DP  RH WIND       PRES   REMARKS
OMAHA EPPLEY   SUNNY     75  39  27 NE3       30.05F
BLAIR          SUNNY     73  39  29 NE8       30.05F
FREMONT        SUNNY     73  39  29 E8        30.06F
MILLARD        SUNNY     74  44  34 CALM      30.04F
PLATTSMOUTH    SUNNY     74  37  26 NE5       30.04F
WAHOO          FAIR      73  40  30 E6        30.05F
$$



USA.gov is the U.S. government's official web portal to all federal, state and local government web resources and services.